Location: Niedergestelen
(46.3129°N, 7.7822°E)
Time: 02:53:55
(UTC+00:00)

N. Korean satellite - Pass Details

Date: 18 September 2021
Orbit: 450 x 495 km, 97.3° (Epoch: 18 October)

Event Time Altitude Azimuth Distance (km) Brightness Sun altitude
Rises 03:38:58 0° 34° (NE) 2,502 11.1 -16.3°
Reaches altitude 10° 03:42:18 10° 69° (ENE) 1,631 10.6 -15.7°
Maximum altitude 03:43:31 11° 90° (E) 1,543 10.2 -15.5°
Drops below altitude 10° 03:44:45 10° 111° (ESE) 1,635 10.0 -15.3°
Sets 03:48:05 0° 146° (SE) 2,518 10.4 -14.8°
